H1 CPF  2 gal 2024 11 28 09 333 1 galileo225
H2 2407901 7225 59598 2024 11 28 00 14 42 2024 12 03 00 14 42 900 1 1 0 0 0 1
H9                                                                                
10 0 60646  76482.000000  0      16428624.524      -6182840.888     -23840377.024 
10 0 60646  77382.000000  0      16651005.853      -4028632.810     -24146760.003 
10 0 60646  78282.000000  0      17020642.930      -1880549.393     -24153049.014 
10 0 60646  79182.000000  0      17531349.109        224976.763     -23859194.612 
10 0 60646  80082.000000  0      18171100.532       2253061.211     -23268872.376 
10 0 60646  80982.000000  0      18922404.782       4171393.156     -22389436.265 
10 0 60646  81882.000000  0      19762843.381       5951180.032     -21231826.747 
10 0 60646  82782.000000  0      20665771.165       7567981.882     -19810434.863 
10 0 60646  83682.000000  0      21601150.698       9002409.658     -18142923.865 
10 0 60646  84582.000000  0      22536495.699      10240665.826     -16250010.589 
10 0 60646  85482.000000  0      23437894.029      11274910.525     -14155209.185 
10 0 60646  86382.000000  0      24271078.308      12103441.981     -11884540.291 
10 0 60647    882.000000  0      25002510.726      12730685.613      -9466209.164 
99